Location: Domachevo
(51.7500°N, 23.6000°E)
Time: 23:26:04
(UTC+02:00)

ISS - Visible Passes

Search period start: 21 February 2018 00:00
Search period end: 03 March 2018 00:00
Orbit: 403 x 407 km, 51.6° (Epoch: 22 February)

Date Brightness Start Highest point End Pass type
(mag) Time Alt. Az. Time Alt. Az. Time Alt. Az.
27 Feb -1.0 06:34:57 10° S 06:37:12 17° SE 06:39:26 10° E visible
28 Feb -0.8 05:44:13 10° SSE 05:45:11 11° SE 05:46:09 10° ESE visible
01 Mar -2.0 06:25:57 10° SSW 06:28:51 29° SSE 06:31:45 10° E visible
02 Mar -1.5 05:34:15 10° SSW 05:36:44 20° SE 05:39:13 10° E visible
